Simultaneous Nadir Overpasses (SNOs) Predictions

Prediction of SNOs between FY3D and NOAA-19 Satellite Orbit:

Table of predicted SNOs for the next 14.0 days since TLE Epoch: 6/29/2024
Index Date (FY3D) Time (FY3D) Lat,Lon (FY3D) SZA (FY3D ) Date (NOAA-19) Time (NOAA-19) Lat,Lon (NOAA-19) SZA (NOAA-19 ) Distance(km) Time Diff (sec)
1 07/03/2024 03:32:29 -76.02, -53.69 126.97 07/03/2024 03:31:14 -76.03, -53.83 126.97 3.79 75
2 07/03/2024 04:23:15 76.04, 113.58 53.05 07/03/2024 04:22:15 76.03, 113.43 53.04 4.10 60
3 07/03/2024 05:14:01 -76.08, -79.28 126.91 07/03/2024 05:13:11 -76.07, -79.17 126.92 3.34 50
4 07/03/2024 06:04:46 76.05, 88.15 53.07 07/03/2024 06:04:12 76.07, 88.09 53.09 2.68 34
5 07/03/2024 06:55:31 -76.05,-104.54 126.93 07/03/2024 06:55:09 -76.06,-104.68 126.92 3.71 22
6 07/03/2024 07:46:17 76.07, 62.72 53.09 07/03/2024 07:46:10 76.07, 62.58 53.09 3.70 7
7 07/03/2024 08:37:03 -76.11,-130.13 126.86 07/03/2024 08:37:06 -76.10,-130.02 126.88 3.25 3
8 07/03/2024 09:27:48 76.08, 37.29 53.11 07/03/2024 09:28:07 76.11, 37.24 53.14 3.11 19
9 07/03/2024 10:18:34 -76.13,-155.56 126.84 07/03/2024 10:19:04 -76.10,-155.53 126.87 3.55 30
10 07/03/2024 11:09:19 76.10, 11.86 53.13 07/03/2024 11:10:05 76.10, 11.74 53.14 3.41 46
11 07/03/2024 12:00:05 -76.14, 179.01 126.82 07/03/2024 12:01:01 -76.14, 179.13 126.83 3.31 56
12 07/03/2024 12:50:50 76.11, -13.57 53.15 07/03/2024 12:52:02 76.14, -13.60 53.18 3.65 72
13 07/03/2024 13:41:44 -76.51, 152.25 126.43 07/03/2024 13:42:52 -76.44, 154.79 126.53 66.67 68



Historial Predications of SNOs between FY3D and NOAA-19
